Погода в Судае

Россия / Костромская область     58°58′42″N   43°07′48″E
темп.,
°C
ветер,
м/с
пор.,
м/с
влажн.,
%
обл.,
%
осадки,
мм/ч
давл.,
гПа
погр.,
м
26 мая, чт
чт2600:00+2з289973 0.1 1008188
03:00+3з3997100 0.1 1007621
06:00+3з259998 0.9 1006382
09:00+4зюз3798100 1.6 1006651
12:00+7зюз4892100 1.5 10051131
15:00+9з4784100 2.8 10051051
18:00+9зюз378389 0.4 1004429
21:00+4ююз229282 0.5 100415
27 мая, пт
пт2700:00+3ю25965 0.0 100386
03:00+2юв23971 0.0 100258
06:00+6вюв379382 0.0 1000230
09:00+11юв468399 0.0 998730
12:00+11вюв4682100 0.1 998751
15:00+13юв3576100 0.1 9981035
18:00+11юв3682100 0.1 998545
21:00+8юв2297100 0.1 99840
28 мая, сб
сб2800:00+7ююв1198100 0.0 99812
03:00+7ю119893 0.0 99726
06:00+8ю2494100 0.0 997194
09:00+9ююз2695100 0.2 997303
12:00+14юз346940 1.2 9961238
15:00+15ююв3456100 2.3 9951364
18:00+9ююз4995100 2.3 997668
21:00+7юз389795 5.5 999340
29 мая, вс
вс2900:00+6юз4109680 0.1 1000511
03:00+6юз3897100 0.1 1001536
06:00+6юз3997100 0.6 1003649
09:00+9юз4894100 0.9 1006650
12:00+11зюз4786100 0.8 1008794
15:00+14зюз466235 1.5 10091451
18:00+14зюз356437 0.4 10101206
21:00+8юз28940 0.4 1013158
30 мая, пн
пн3000:00+6юз28970 0.0 1015157
03:00+6ююз27970 0.0 1017123
06:00+9юз37845 0.0 1018234
09:00+15зюз366297 0.0 10181080
12:00+16зюз465778 0.4 10191645
15:00+17зюз466085 1.0 10191548
18:00+16зюз257077 0.4 1020703
21:00+13юз2288100 1.1 102121